[[{"header":{"parameterUnit":"m.s-1","parameterCategory":1,"la1":30.2991,"la2":30.254,"lo1":-89.0895,"lo2":-89.0444,"dy":0.0017,"dx":0.0017,"nx":28,"ny":28,"refTime":"2024-08-03T21:00:00:Z","depth":0,"parameterNumber":2,"parameterNumberName":"U-component_of_WINDS"},"data":[0,0,0,0,0,0,0,0,0,0,0,0,0,0,0,0,0,0,0,0,0,0,0,0,0,0,0,0,0,0,0,0,0,0,0,0,0,0,0,0,0,0,0,0,0,0,0,0,0,0,0,0,0,0,0,0,0,0,-0.8596,-0.8596,0,-0.8615,-0.8615,-0.8615,-0.8543,-0.8541,-0.8539,-0.8537,-0.8559,-0.8561,-0.8564,0,0,0,0,0,0,0,0,0,0,0,0,0,-0.8498,-0.85,-0.8596,-0.8596,-0.8596,-0.8615,-0.8615,-0.8615,-0.8544,-0.8541,-0.8538,-0.8536,-0.8558,-0.8561,-0.8564,0,0,0,0,0,0,0,0,0,0,0,0,0,-0.8531,-0.8501,-0.8596,-0.8563,-0.856,-0.8615,-0.8615,-0.8616,-0.8544,-0.8541,-0.8538,-0.8535,-0.8557,-0.8561,-0.8564,-0.8653,0,0,-0.8576,-0.8578,0,0,0,0,0,0,0,0,-0.8529,-0.8535,-0.8567,-0.8565,-0.8562,-0.8573,-0.8588,-0.8628,-0.8545,-0.855,-0.8537,-0.8533,-0.8566,-0.8569,-0.858,-0.8654,-0.8655,-0.8577,-0.8579,-0.8581,-0.8582,0,0,0,0,0,0,0,-0.8527,-0.8534,-0.8603,-0.8568,-0.8565,-0.8547,-0.8548,-0.8596,-0.8576,-0.855,-0.8544,-0.8547,-0.8564,-0.8576,-0.858,-0.8655,-0.8576,-0.858,-0.8582,-0.8584,-0.8801,-0.8805,0,0,0,0,0,0,-0.8529,-0.8532,-0.8603,-0.8604,-0.8537,-0.8551,-0.8553,-0.8573,-0.8575,-0.8573,-0.855,-0.8544,-0.8571,-0.8575,-0.858,-0.8684,-0.8581,-0.8584,-0.8586,-0.8798,-0.8802,-0.8806,0,0,0,0,0,0,-0.8527,-0.8536,-0.8602,-0.8567,-0.8574,-0.8557,-0.858,-0.8575,-0.8587,-0.8576,-0.8572,-0.8566,-0.8569,-0.8575,-0.8635,-0.8683,-0.8586,-0.8589,-0.8794,-0.8799,-0.8804,-0.8892,0,0,0,0,0,0,-0.8525,-0.8536,-0.8569,-0.8568,-0.8576,-0.8657,-0.8583,-0.8578,-0.8594,-0.8586,-0.859,-0.8588,-0.8567,-0.863,-0.8639,-0.8687,-0.8592,-0.8789,-0.8796,-0.8802,-0.8884,-0.8899,-0.8912,0,0,0,0,0,-0.8521,-0.8594,-0.8571,-0.858,-0.8617,-0.8659,-0.8664,-0.8638,-0.8598,-0.8632,-0.8624,-0.8587,-0.8676,-0.8636,-0.8646,-0.8696,-0.8786,-0.8794,-0.8802,-0.8878,-0.8896,-0.8911,0,0,0,0,0,0,-0.8603,-0.8593,-0.8568,-0.8642,-0.8652,-0.8647,-0.8689,-0.8658,-0.868,-0.8672,-0.864,-0.8641,-0.8707,-0.8707,-0.8663,-0.8781,-0.8724,-0.8734,-0.8779,-0.8796,-0.881,-0.8809,-0.8596,0,0,0,0,0,-0.8629,-0.8664,-0.8653,-0.872,-0.8726,-0.8707,-0.8724,-0.8703,-0.8712,-0.8716,-0.8713,-0.8724,-0.8754,-0.8775,-0.8802,-0.8883,-0.8883,-0.8922,-0.8936,-0.8947,-0.8957,-0.8999,-0.9017,-0.8831,-0.8831,-0.8831,0,0,-0.8684,-0.8683,-0.8708,-0.8736,-0.8741,-0.8778,-0.8711,-0.8753,-0.878,-0.8723,-0.8779,-0.8777,-0.8787,-0.8858,-0.8889,-0.886,-0.9008,-0.8957,-0.8966,-0.897,-0.9009,-0.9027,-0.9042,-0.8837,-0.8836,-0.8835,0,0,-0.8804,-0.8807,-0.8862,-0.8868,-0.8876,-0.8862,-0.8875,-0.8875,-0.8871,-0.8927,-0.8884,-0.8916,-0.8969,-0.8977,-0.8988,-0.9109,-0.9076,-0.9118,-0.9191,-0.9232,-0.9247,-0.926,-0.9303,-0.9319,-0.9128,-0.9128,-0.9128,0,-0.8872,-0.8925,-0.8894,-0.8939,-0.8952,-0.8901,-0.8957,-0.8964,-0.8981,-0.8992,-0.8959,-0.9023,-0.9026,-0.9098,-0.9127,-0.9138,-0.9152,-0.9119,-0.9247,-0.926,-0.9271,-0.9312,-0.9328,-0.9133,-0.9132,-0.9132,-0.9131,0,-0.9008,-0.9046,-0.9089,-0.9106,-0.9124,-0.9174,-0.9151,-0.9173,-0.915,-0.914,-0.9197,-0.9198,-0.9224,-0.9239,-0.9218,-0.9308,-0.929,-0.9253,-0.9195,-0.9295,-0.9332,-0.9348,-0.914,-0.9139,-0.9137,-0.9136,0,0,-0.9182,-0.9179,-0.9195,-0.9202,-0.9206,-0.9234,-0.9281,-0.9306,-0.9326,-0.9339,-0.9377,-0.9422,-0.9387,-0.94,-0.9379,-0.9415,-0.951,-0.9373,-0.9373,-0.9399,-0.9609,-0.9637,-0.9656,-0.9487,-0.949,-0.9492,-0.9608,0,-0.9299,-0.9379,-0.9352,-0.9433,-0.9467,-0.9418,-0.9459,-0.9466,-0.9457,-0.9485,-0.9475,-0.9507,-0.9459,-0.9466,-0.95,-0.9491,-0.9552,-0.9482,-0.9524,-0.9526,-0.9524,-0.9676,-0.9706,-0.9815,-0.9623,-0.9625,-0.9627,0,-0.9447,-0.9465,-0.955,-0.9547,-0.956,-0.9597,-0.9617,-0.9643,-0.965,-0.9641,-0.9654,-0.9625,-0.967,-0.9612,-0.9674,-0.9628,-0.9642,-0.9641,-0.9644,-0.9648,-0.9583,-0.9684,-0.985,-0.9866,-0.965,-0.9648,-0.9646,0,-0.9565,-0.961,-0.9666,-0.9673,-0.9671,-0.9698,-0.9699,-0.9702,-0.9718,-0.9735,-0.9745,-0.9768,-0.978,-0.9798,-0.9775,-0.9735,-0.9842,-0.9781,-0.9836,-0.9836,-0.9861,-0.986,-1.0032,-0.987,-0.987,-0.987,-0.9869,0,-0.97,-0.9754,-0.9719,-0.9754,-0.9812,-0.978,-0.9839,-0.9834,-0.9837,-0.987,-0.9828,-0.986,-0.9827,-0.9856,-0.9838,-0.9893,-0.9899,-0.9893,-0.9888,-0.9897,-0.9898,-0.9907,-0.9899,-0.9874,-0.9873,-0.9872,-0.9871,0,-0.9842,-0.9821,-0.9879,-0.9872,-0.9871,-0.9915,-0.9908,-0.994,-0.9927,-0.9969,-0.9977,-0.9958,-0.9989,-0.9968,-1.0,-0.9987,-1.0059,-1.0043,-1.0057,-1.0053,-1.0108,-1.0104,-1.0293,-1.0316,-1.0139,-1.0141,-1.0142,0,-0.993,-0.997,-0.9966,-0.9985,-0.9988,-1.0018,-1.0034,-1.0003,-1.0021,-1.0031,-1.0061,-1.0089,-1.0109,-1.0162,-1.0151,-1.0175,-1.0159,-1.0224,-1.0162,-1.017,-1.016,-1.0158,-1.0162,-1.0237,-1.0239,-1.024,-1.0242,0,-1.0088,-1.0075,-1.0098,-1.0119,-1.0138,-1.0153,-1.0164,-1.0181,-1.015,-1.0172,-1.0203,-1.0219,-1.0251,-1.0279,-1.0298,-1.0298,-1.0265,-1.0261,-1.0275,-1.0285,-1.0291,-1.0289,-1.0091,-1.0257,-1.0255,-1.0254,-1.0253,-1.0253,-1.0205,-1.0238,-1.024,-1.0268,-1.0273,-1.0284,-1.0313,-1.0303,-1.0328,-1.0351,-1.0331,-1.0368,-1.0372,-1.0395,-1.0399,-1.0428,-1.0401,-1.0422,-1.0427,-1.0432,-1.044,-1.0286,-1.0431,-1.0431,-1.043,-1.043,-1.0429,0,-1.0361,-1.0359,-1.0385,-1.0401,-1.0423,-1.0388,-1.0398,-1.0418,-1.0451,-1.0458,-1.0478,-1.0513,-1.054,-1.053,-1.0553,-1.0578,-1.0564,-1.0585,-1.0584,-1.0584,-1.0463,-1.0448,-1.0597,-1.0597,-1.0597,-1.0597,-1.0597,-1.0597,-1.0444,-1.0498,-1.0485,-1.054,-1.0538,-1.0573,-1.0582,-1.0592,-1.0597,-1.0638,-1.0659,-1.0652,-1.0652,-1.0674,-1.0697,-1.0693,-1.0704,-1.0732,-1.0723,-1.0609,-1.0593,-1.0577,-1.0564,-1.0734,-1.0734,-1.0842,-1.0843,-1.0844]},{"header":{"parameterUnit":"m.s-1","parameterCategory":1,"la1":30.2991,"la2":30.254,"lo1":-89.0895,"lo2":-89.0444,"dy":0.0017,"dx":0.0017,"nx":28,"ny":28,"refTime":"2024-08-03T21:00:00:Z","depth":0,"parameterNumber":3,"parameterNumberName":"V-component_of_WINDS"},"data":[0,0,0,0,0,0,0,0,0,0,0,0,0,0,0,0,0,0,0,0,0,0,0,0,0,0,0,0,0,0,0,0,0,0,0,0,0,0,0,0,0,0,0,0,0,0,0,0,0,0,0,0,0,0,0,0,0,0,-4.2935,-4.2936,0,-4.3091,-4.3093,-4.3095,-4.3078,-4.3076,-4.3074,-4.3071,-4.3228,-4.3234,-4.324,0,0,0,0,0,0,0,0,0,0,0,0,0,-4.2618,-4.2624,-4.2935,-4.2937,-4.2939,-4.3091,-4.3093,-4.3095,-4.3079,-4.3076,-4.3073,-4.307,-4.3226,-4.3233,-4.3241,0,0,0,0,0,0,0,0,0,0,0,0,0,-4.2763,-4.2626,-4.2934,-4.2949,-4.2952,-4.309,-4.3093,-4.3096,-4.3079,-4.3076,-4.3072,-4.3069,-4.3223,-4.3233,-4.3242,-4.3375,0,0,-4.3272,-4.3276,0,0,0,0,0,0,0,0,-4.2755,-4.2775,-4.2945,-4.2948,-4.2952,-4.3062,-4.3039,-4.3189,-4.308,-4.3031,-4.3071,-4.3067,-4.3175,-4.3189,-4.3226,-4.3382,-4.3389,-4.3273,-4.3278,-4.3283,-4.3285,0,0,0,0,0,0,0,-4.2745,-4.2768,-4.2996,-4.2947,-4.2951,-4.2946,-4.2963,-4.3067,-4.3122,-4.3035,-4.3034,-4.3053,-4.3176,-4.3217,-4.3229,-4.3391,-4.3272,-4.3281,-4.3287,-4.3291,-4.3664,-4.3668,0,0,0,0,0,0,-4.2732,-4.276,-4.2991,-4.3001,-4.2842,-4.2955,-4.2974,-4.303,-4.312,-4.3131,-4.3056,-4.3052,-4.3202,-4.3218,-4.3235,-4.3396,-4.3282,-4.3292,-4.3297,-4.366,-4.3665,-4.3669,0,0,0,0,0,0,-4.2725,-4.2753,-4.2985,-4.288,-4.2909,-4.2964,-4.3028,-4.3035,-4.3075,-4.3136,-4.3146,-4.3087,-4.32,-4.3221,-4.334,-4.3401,-4.3296,-4.3305,-4.3655,-4.3661,-4.3667,-4.372,0,0,0,0,0,0,-4.2716,-4.275,-4.2802,-4.2882,-4.2915,-4.3089,-4.3032,-4.3041,-4.3092,-4.3088,-4.3168,-4.3178,-4.3198,-4.3326,-4.335,-4.3413,-4.3312,-4.365,-4.3658,-4.3665,-4.3713,-4.3727,-4.3739,0,0,0,0,0,-4.2705,-4.281,-4.2805,-4.2833,-4.2982,-4.3093,-4.3112,-4.3134,-4.3097,-4.3149,-4.3189,-4.3175,-4.3391,-4.3338,-4.3365,-4.3432,-4.3646,-4.3656,-4.3665,-4.3707,-4.3724,-4.3739,0,0,0,0,0,0,-4.2736,-4.2821,-4.2816,-4.2951,-4.3015,-4.309,-4.3157,-4.3152,-4.3227,-4.322,-4.3243,-4.3261,-4.3382,-4.3419,-4.3359,-4.3565,-4.3513,-4.3528,-4.3536,-4.3553,-4.3566,-4.3554,-4.332,0,0,0,0,0,-4.2759,-4.2843,-4.2912,-4.3024,-4.3057,-4.3101,-4.3151,-4.3162,-4.3229,-4.3256,-4.3304,-4.3368,-4.345,-4.3504,-4.3583,-4.3718,-4.3735,-4.3777,-4.379,-4.3801,-4.3813,-4.3887,-4.3906,-4.37,-4.37,-4.37,0,0,-4.2806,-4.2863,-4.2915,-4.3032,-4.3083,-4.3169,-4.3124,-4.3217,-4.328,-4.327,-4.3385,-4.3423,-4.3496,-4.3624,-4.3682,-4.3658,-4.3874,-4.3812,-4.382,-4.3827,-4.3898,-4.3918,-4.3935,-4.3706,-4.3705,-4.3704,0,0,-4.2936,-4.2988,-4.3087,-4.3139,-4.3217,-4.3246,-4.327,-4.3346,-4.3371,-4.3488,-4.3481,-4.3556,-4.3697,-4.375,-4.3795,-4.3944,-4.3935,-4.3969,-4.4038,-4.4109,-4.4125,-4.414,-4.4192,-4.4211,-4.3982,-4.3982,-4.3982,0,-4.2985,-4.3115,-4.3138,-4.3232,-4.3283,-4.3279,-4.3378,-4.3427,-4.3527,-4.3561,-4.3533,-4.371,-4.3759,-4.3899,-4.3935,-4.3972,-4.3999,-4.396,-4.4121,-4.4136,-4.415,-4.42,-4.422,-4.3985,-4.3985,-4.3985,-4.3984,0,-4.3171,-4.3261,-4.3331,-4.3429,-4.3488,-4.3584,-4.362,-4.3677,-4.3684,-4.3715,-4.3833,-4.3892,-4.3982,-4.4016,-4.4023,-4.4157,-4.4139,-4.4116,-4.4065,-4.4173,-4.4221,-4.424,-4.3991,-4.3989,-4.3988,-4.3987,0,0,-4.3325,-4.3434,-4.3459,-4.3503,-4.3589,-4.3658,-4.3754,-4.3843,-4.3891,-4.396,-4.404,-4.4159,-4.4138,-4.4189,-4.4202,-4.4265,-4.4378,-4.4233,-4.4235,-4.4258,-4.4528,-4.4545,-4.4567,-4.4373,-4.4376,-4.4379,-4.4522,0,-4.3463,-4.3634,-4.3657,-4.3807,-4.389,-4.3886,-4.3969,-4.403,-4.4061,-4.4135,-4.417,-4.4254,-4.422,-4.4251,-4.4313,-4.4351,-4.4433,-4.4341,-4.4446,-4.4449,-4.4427,-4.4592,-4.461,-4.4742,-4.4541,-4.4544,-4.4546,0,-4.3647,-4.3722,-4.3881,-4.3955,-4.399,-4.4065,-4.4148,-4.422,-4.4288,-4.4306,-4.4364,-4.4368,-4.4465,-4.441,-4.4544,-4.4482,-4.4526,-4.4551,-4.4556,-4.4567,-4.4504,-4.4606,-4.4785,-4.4804,-4.4576,-4.4574,-4.4572,0,-4.3743,-4.3883,-4.3996,-4.4034,-4.4123,-4.4175,-4.4214,-4.4279,-4.4332,-4.4404,-4.4438,-4.4521,-4.4566,-4.4629,-4.4655,-4.4613,-4.4788,-4.4735,-4.4805,-4.4804,-4.4841,-4.4838,-4.5029,-4.4871,-4.487,-4.487,-4.4869,0,-4.3895,-4.3992,-4.404,-4.411,-4.4218,-4.4243,-4.4349,-4.4386,-4.4444,-4.4519,-4.4521,-4.4591,-4.4622,-4.4698,-4.4719,-4.4826,-4.4846,-4.4863,-4.4867,-4.4863,-4.4861,-4.4892,-4.4883,-4.4875,-4.4874,-4.4873,-4.4872,0,-4.402,-4.4057,-4.4179,-4.4254,-4.4275,-4.4351,-4.4414,-4.4481,-4.4512,-4.4607,-4.4631,-4.4679,-4.4768,-4.48,-4.4908,-4.4922,-4.5046,-4.5043,-4.5023,-4.5024,-4.5092,-4.5085,-4.5309,-4.5339,-4.5161,-4.5163,-4.5164,0,-4.4114,-4.4189,-4.4272,-4.4323,-4.4364,-4.4447,-4.45,-4.4527,-4.4583,-4.4666,-4.4722,-4.4811,-4.4883,-4.5024,-4.5068,-4.515,-4.5149,-4.5221,-4.5161,-4.5154,-4.5149,-4.5144,-4.5151,-4.5232,-4.5234,-4.5236,-4.5237,0,-4.4277,-4.4292,-4.4369,-4.4454,-4.4517,-4.4585,-4.465,-4.4691,-4.4728,-4.479,-4.4881,-4.4937,-4.5047,-4.5134,-4.5219,-4.5257,-4.5253,-4.5256,-4.5276,-4.5272,-4.5257,-4.5266,-4.5053,-4.525,-4.5249,-4.5248,-4.5247,-4.5247,-4.439,-4.4456,-4.4524,-4.461,-4.4662,-4.4723,-4.4789,-4.4829,-4.4905,-4.4998,-4.5009,-4.5106,-4.5172,-4.5285,-4.5328,-4.5404,-4.5384,-4.5414,-4.5421,-4.5428,-4.5432,-4.5246,-4.5419,-4.5419,-4.5418,-4.5418,-4.5418,0,-4.4552,-4.4596,-4.4675,-4.4767,-4.4834,-4.4826,-4.4897,-4.4954,-4.504,-4.5102,-4.5173,-4.5277,-4.5362,-4.5413,-4.5497,-4.5548,-4.5548,-4.5569,-4.5566,-4.5575,-4.5446,-4.5419,-4.5568,-4.5568,-4.5568,-4.5568,-4.5568,-4.5568,-4.4645,-4.4756,-4.4778,-4.4915,-4.4957,-4.5054,-4.5095,-4.5151,-4.5201,-4.5317,-4.5388,-4.5421,-4.5478,-4.5567,-4.5644,-4.5656,-4.5687,-4.571,-4.5721,-4.5599,-4.5584,-4.5569,-4.5544,-4.5717,-4.5717,-4.5844,-4.5845,-4.5846]}]]